NV7SW Weather Reports


time (UTC)temp
F
wind
direction
speed
knots
gust
knots
rain 1hr
in
rain 24hr
in
rain mn
in
humidity
%
barometer
mb
20260503054514 53 360 2.6 4.3 0.00 0.00 0.00 24 1009.5
20260503053014 54 360 4.3 5.2 0.00 0.00 0.00 23 1009.5
20260503051513 54 360 3.5 7.0 0.00 0.00 0.00 23 1009.5
20260503050013 55 360 3.5 5.2 0.00 0.00 0.00 23 1009.5
20260503044513 56 360 1.7 3.5 0.00 0.00 0.00 24 1009.5
20260503043011 57 360 0.9 4.3 0.00 0.00 0.00 21 1009.3
20260503041512 58 360 4.3 7.0 0.00 0.00 0.00 21 1009.3
20260503040010 58 360 3.5 4.3 0.00 0.00 0.00 20 1009.1
20260503034510 59 360 4.3 7.0 0.00 0.00 0.00 20 1009.1
20260503033008 60 360 4.3 7.0 0.00 0.00 0.00 19 1008.9
20260503031509 61 360 2.6 5.2 0.00 0.00 0.00 18 1008.8
20260503030009 64 360 3.5 5.2 0.00 0.00 0.00 15 1008.7
20260503024508 66 360 0.0 1.7 0.00 0.00 0.00 14 1008.6
20260503023007 66 193 0.9 3.5 0.00 0.00 0.00 13 1008.5
20260503021507 67 172 0.9 2.6 0.00 0.00 0.00 12 1008.5
20260503020006 68 360 1.7 3.5 0.00 0.00 0.00 11 1008.5
20260503014505 68 146 1.7 4.3 0.00 0.00 0.00 11 1008.5
20260503013011 69 155 2.6 7.0 0.00 0.00 0.00 11 1008.6
20260503011502 69 360 2.6 8.7 0.00 0.00 0.00 11 1008.7
20260503010003 70 180 1.7 8.7 0.00 0.00 0.00 11 1008.7
20260503004503 70 360 1.7 8.7 0.00 0.00 0.00 12 1008.7
20260503003100 71 184 0.9 7.0 0.00 0.00 0.00 11 1008.7
20260503001559 70 164 2.6 8.7 0.00 0.00 0.00 11 1008.8
20260502234558 71 124 0.0 6.1 0.00 0.00 0.00 11 1009.0
20260502233058 70 40 0.9 2.6 0.00 0.00 0.00 11 1009.1
20260502231602 70 20 2.6 6.1 0.00 0.00 0.00 11 1009.2
20260502230053 71 249 4.3 8.7 0.00 0.00 0.00 11 1009.4
20260502224551 72 194 5.2 7.8 0.00 0.00 0.00 10 1009.5
20260502223049 73 138 0.9 6.1 0.00 0.00 0.00 12 1009.7
20260502221549 73 178 7.8 15.6 0.00 0.00 0.00 12 1009.9
20260502220047 73 182 7.0 10.4 0.00 0.00 0.00 11 1010.2
20260502214554 72 194 3.5 8.7 0.00 0.00 0.00 12 1010.2
20260502213040 72 127 5.2 9.6 0.00 0.00 0.00 12 1010.8
20260502211538 72 147 5.2 15.6 0.00 0.00 0.00 13 1011.0
20260502210045 70 284 5.2 12.2 0.00 0.00 0.00 13 1011.1
20260502204536 71 196 6.1 10.4 0.00 0.00 0.00 12 1011.3
20260502203035 70 119 2.6 13.0 0.00 0.00 0.00 14 1011.5
20260502201531 70 156 7.8 15.6 0.00 0.00 0.00 14 1011.8
20260502200030 70 127 3.5 13.0 0.00 0.00 0.00 14 1011.9
20260502194532 70 157 4.3 13.0 0.00 0.00 0.00 15 1012.1
20260502193025 69 110 2.6 9.6 0.00 0.00 0.00 15 1012.2
20260502191523 70 114 5.2 9.6 0.00 0.00 0.00 15 1012.4
20260502190025 69 166 4.3 13.0 0.00 0.00 0.00 15 1012.5
20260502184521 68 138 4.3 12.2 0.00 0.00 0.00 16 1012.9
20260502183014 68 143 5.2 13.0 0.00 0.00 0.00 17 1013.2
20260502181526 67 123 3.5 10.4 0.00 0.00 0.00 16 1013.4
20260502163051 56 360 0.0 7.0 0.00 0.00 0.00 24 1014.8
20260502161541 55 360 3.5 9.6 0.00 0.00 0.00 24 1015.0
20260502151533 49 360 1.7 5.2 0.00 0.00 0.00 32 1015.1
20260502123005 34 331 0.0 1.7 0.00 0.00 0.00 45 1014.1
20260502121600 35 320 0.0 1.7 0.00 0.00 0.00 42 1014.1
20260502114601 35 68 1.7 2.6 0.00 0.00 0.00 45 1013.8
20260502113059 35 141 0.0 2.6 0.00 0.00 0.00 44 1013.9
20260502111558 37 141 0.9 2.6 0.00 0.00 0.00 41 1013.9
20260502110053 37 110 0.9 2.6 0.00 0.00 0.00 40 1013.9
20260502104549 37 355 0.9 2.6 0.00 0.00 0.00 41 1013.9
20260502103054 37 336 1.7 2.6 0.00 0.00 0.00 43 1013.9
20260502101557 37 232 0.0 0.9 0.00 0.00 0.00 43 1013.9
20260502100107 37 232 0.0 1.7 0.00 0.00 0.00 40 1013.9
20260502091531 41 360 1.7 3.5 0.00 0.00 0.00 36 1013.6
20260502071515 45 360 1.7 7.0 0.00 0.00 0.00 30 1014.0
20260502070011 46 360 2.6 4.3 0.00 0.00 0.00 29 1013.9
20260502064511 47 360 2.6 3.5 0.00 0.00 0.00 28 1013.8
20260502063010 48 273 1.7 3.5 0.00 0.00 0.00 27 1013.7